Location: Harwich
(41.6860°N, 70.0760°W)
Time: 05:24:49
(UTC-04:00)

Cosmos 2228 - Visible Passes

Search period start: 01 April 2015 00:00
Search period end: 11 April 2015 00:00
Orbit: 594 x 621 km, 82.5° (Epoch: 31 March)

Date Brightness Start Highest point End Pass type
(mag) Time Alt. Az. Time Alt. Az. Time Alt. Az.
01 Apr 5.6 03:11:29 10° N 03:12:16 15° N 03:12:16 15° N visible
02 Apr 5.7 03:25:26 10° NNW 03:25:52 13° NNW 03:25:52 13° NNW visible
03 Apr 6.3 02:02:22 10° NNE 02:02:35 11° NNE 02:02:35 11° NNE visible
04 Apr 6.1 02:15:45 10° N 02:16:13 13° NNE 02:16:13 13° NNE visible
05 Apr 6.0 02:29:23 10° N 02:29:51 13° N 02:29:51 13° N visible
06 Apr 5.9 02:43:13 10° NNW 02:43:31 12° NNW 02:43:31 12° NNW visible
08 Apr 6.3 01:33:47 10° NNE 01:33:56 11° NNE 01:33:56 11° NNE visible
09 Apr 6.1 01:47:16 10° N 01:47:37 12° N 01:47:37 12° N visible
10 Apr 6.0 02:00:59 10° N 02:01:18 12° N 02:01:18 12° N visible
